Main page
METAR-TAF:

METAR-TAF

Airports :

Zabol, Iran

Zabol Airport

latitude: 31-20N, longitude: 061-29E, elevation: 489 m

Current weather observation

The report was made 55 minutes ago, at 10:00 UTC
Wind 4 kt from the North
Temperature 19°C
Humidity 16%
Pressure 1021 hPa
Visibility 10 km or more
Few clouds at a height of 4500 ft
Scattered clouds at a height of 19000 ft

METAR: OIZB 181000Z 01004KT 9999 FEW045 SCT190 19/M07 Q1021

Time: 14:25 (10:55 UTC)


TAF: missing

Weather observations and forecasts of more than 4000 airports (METAR and TAF reports).

The available stations are represented by yellow and red dots on the map.

Hover mouse over dot to see the name of the station.

Then click to see weather observations and forecasts.

To change the map : click on the green buttons with a black cross to zoom in, on the green button with a dash to zoom out, or on the green arrows for adjacent maps.


METAR-TAF: